Location: T�chigga el Be�da
(16.4766°N, 9.3887°W)
Time: 10:23:19
(UTC+00:00)

Haruka - Pass Details

Date: 27 February 2020
Orbit: 539 x 21212 km, 31.3° (Epoch: 28 March)

Event Time Altitude Azimuth Distance (km) Brightness Sun altitude
Rises 19:04:42 0° 312° (NW) 2,721 6.5 -5.8°
Reaches altitude 10° 19:06:29 10° 324° (NW) 1,997 5.6 -6.2°
Maximum altitude 19:10:08 33° 32° (NNE) 1,530 4.3 -7.1°
Drops below altitude 10° 19:19:11 10° 95° (E) 5,016 6.5 -9.2°
Enters shadow 19:19:44 - 95° (E) 5,248 6.6 -9.4°
